Location: Mary A Oil Field
(38.5606°N, 98.9545°W)
Time: 04:51:53
(UTC+00:00)

YAOGAN 1 - Pass Details

Date: 20 January 2020
Orbit: 619 x 621 km, 98.0° (Epoch: 23 February)

Event Time Altitude Azimuth Distance (km) Brightness Sun altitude
Rises 00:14:59 0° 133° (SE) 2,886 5.7 -6.6°
Reaches altitude 10° 00:17:32 10° 119° (ESE) 1,984 4.8 -7.1°
Maximum altitude 00:20:51 22° 68° (ENE) 1,363 3.7 -7.7°
Drops below altitude 10° 00:24:11 10° 18° (NNE) 1,995 4.8 -8.3°
Sets 00:26:46 0° 3° (N) 2,905 5.8 -8.8°
